Regional Weather Roundup
Issued by NWS

Home | Current Version | Previous Version | Text Only | Print | Product List | Glossary On
Versions: 1 2 3 4 5 6 7 8 9 10 11 12 13 14 15 16 17 18 19 20 21 22 23 24 25 26 27 28 29 30 31 32 33 34 35 36 37 38 39 40 41 42 43 44 45 46 47 48 49 50
246
ASHW40 PHFO 302043
RWRHI

WEATHER ROUNDUP FOR HAWAII
NATIONAL WEATHER SERVICE HONOLULU HI
1000 AM HST THU MAR 30 2017

THIS IS AN AUTOMATED REPORT THAT HAS NOT BEEN QUALITY CONTROLLED.

NOTE..."FAIR" INDICATES FEW OR NO CLOUDS BELOW 12,000 FEET WITH NO
SIGNIFICANT WEATHER AND/OR OBSTRUCTIONS TO VISIBILITY.

* - THESE SITES REPORT LIMITED FIELDS

HIZ001>004-302100-
KAUAI-NIIHAU-

CITY           SKY/WX    TMP DP  RH WIND       PRES   REMARKS
LIHUE APT      PTSUNNY   79  70  74 E14       30.12
PORT ALLEN*      N/A     81 N/A N/A E15G21      N/A
POIPU*           N/A     79 N/A N/A E7G14       N/A
PRINCEVILLE*     N/A     77 N/A N/A SE8G15      N/A
KOKOLE POINT*  NOT AVBL
MOLOAA DAIRY*  NOT AVBL
WAIMEA HTS*      N/A     88  64  45 E8G14       N/A
PUU OPAE*      NOT AVBL
PUU LUA*       NOT AVBL
MAKAHA RIDGE*    N/A     73  64  73 W2          N/A
$$

HIZ005>011-302100-
OAHU-

CITY           SKY/WX    TMP DP  RH WIND       PRES   REMARKS
HONOLULU       MOSUNNY   82  64  54 E9        30.09F
KALAELOA       MOSUNNY   84  66  54 E7G16     30.10F
KANEOHE MCB    NOT AVBL
WHEELER FIELD  MOSUNNY   77  67  72 SE8G21    30.10F
BELLOWS*         N/A    N/A N/A N/A E16         N/A
KAHUKU*          N/A    N/A N/A N/A NE10G21     N/A
WHEELER*         N/A    N/A N/A N/A E8G17       N/A
WAIANAE HARBOR   N/A    N/A N/A N/A NE9G16      N/A
DILLINGHAM*      N/A     86  72  62 SW7G13      N/A  HX  92
KAHUKU TRN*      N/A     82  73  74 W7G21       N/A
KAWAILOA*        N/A     73  66  78 E7G17       N/A
KII*             N/A     79  68  69 E15G21      N/A
MAKUA RANGE*     N/A     81  66  61 E3G12       N/A
OAHU FOREST NW   N/A     72  64  78 CALM        N/A
SCHOFIELD BRK*   N/A     75  66  73 MISG        N/A
SCHOFIELD S*   NOT AVBL
WAIANAE VLY*     N/A     82  66  57 NE8G22      N/A
KUAOKALA*        N/A     75   3   6 NE12G26     N/A
HONOULIUULI*   NOT AVBL
MOKUOLOE IS*   NOT AVBL
PALEHUA*         N/A     73  66  78 E5G16       N/A
WAIAWA PHB*    NOT AVBL
$$

HIZ012>013-302100-
MOLOKAI-

CITY           SKY/WX    TMP DP  RH WIND       PRES   REMARKS
MOLOKAI AIRPT  SUNNY     82  65  56 NE12      30.10F
KALAUPAPA      NOT AVBL
MAKAPULAPAI*     N/A     82  70  65 E20G30      N/A
MOLOKAI 1*       N/A     72  57  60 E7G22       N/A
PUU ALII*        N/A     61  59  93 NE3G16      N/A
$$

HIZ016-302100-
KAHOOLAWE-

CITY           SKY/WX    TMP DP  RH WIND       PRES   REMARKS
KAHOOLAWE*     NOT AVBL
HAKIOAWA*        N/A     75  67  76 CALM        N/A
HONOKANAIA*      N/A     81  68  64 NE17G30   30.03
KANELOA*         N/A     75  66  73 E22G36    30.15
KEALIALALO*    NOT AVBL
LUA MAKIKA*    NOT AVBL
$$

HIZ014>015-302100-
LANAI-

CITY           SKY/WX    TMP DP  RH WIND       PRES   REMARKS
LANAI CITY     CLOUDY    77  64  65 S12G20    30.14S
LANAI 1*         N/A     79  64  61 SE6G18      N/A
$$

HIZ017>028-302100-
MAUI-

CITY           SKY/WX    TMP DP  RH WIND       PRES   REMARKS
KAHULUI        MOSUNNY   81  64  56 SE8G22    30.07F
KAPALUA-W MAUI MOSUNNY   81  63  54 NE14      30.10S
HANA AIRPORT   CLOUDY    81  70  69 SE6       30.14S
HANA*            N/A     77 N/A N/A SE8G18      N/A
HALEAKALA SUMM   N/A     48  36  61 E14G37      N/A
MAALAEA BAY*     N/A     84 N/A N/A NE5G12      N/A
HALEAKALA*     NOT AVBL
KAUPO GAP*       N/A     73  72  94 E7G18       N/A
KULA 1*          N/A     57  53  87 NW3         N/A
$$

HIZ023>026-302100-
BIG ISLAND OF HAWAII COAST AND LOWER SLOPES-

CITY           SKY/WX    TMP DP  RH WIND       PRES   REMARKS
KAILUA KONA    SUNNY     80  62  54 W8        30.06F
HILO           PTSUNNY   78  66  66 S10       30.13F
HONOKAA*         N/A     77 N/A N/A VRB1        N/A
KAWAIHAE MWT*    N/A     81 N/A N/A W5          N/A
KAWAIHAE*        N/A     79 N/A N/A W5        30.06F
SOUTH POINT*     N/A     75 N/A N/A N20G28      N/A
UPOLU AIRPORT* NOT AVBL
KAMUELA*       PTCLDY    75  59  57 E10G22    30.17S
HAKALAU*         N/A     55  50  84 SE5G12      N/A
KALOKO-HONOKO*   N/A     82  64  54 W8        30.06
PALI 2*          N/A     72  57  60 SW14G22     N/A
KEALAKOMO*       N/A     81  66  61 NE14G21     N/A
KAUPULEHU*       N/A     81  59  47 W9G15       N/A
KAPAPALA*        N/A     78  58  49 NE8G15      N/A
LOWER KAHUKU*    N/A     64  55  72 NE3G16      N/A
PUHE CS*         N/A     79  55  44 W3          N/A
PUHO CS*         N/A     82  63  51 W3          N/A
PTA KEAMUKU*     N/A     70  54  56 CALM        N/A
WAIKOLOA*        N/A     81  57  44 W10         N/A
$$

HIZ027>028-302100-
BIG ISLAND OF HAWAII INTERIOR AND SUMMMITS-

CITY           SKY/WX    TMP DP  RH WIND       PRES   REMARKS
BRADSHAW FIELD SUNNY     63  48  59 S15G25    30.36S
MK VISITOR CEN   N/A     55  37  50 VRB8        N/A
MAUNA KEA*       N/A     43 -15   8 NE10        N/A
MAUNA LOA*       N/A     52   9  17 MISG        N/A
MAUNA LOA 1*   NOT AVBL
PTA KIPUKA*      N/A    N/A N/A N/A S3G10       N/A
PTA RANGE 17*    N/A     64  48  55 E18G28      N/A
PTA WEST*        N/A     68  52  56 NW7         N/A
NENE CABIN*      N/A     54  48  82 E12G23      N/A
AHUMOA*          N/A     57  52  84 NW7         N/A
PTA PORTABLE*  NOT AVBL
PUU MALI*        N/A     61  50  67 W5G12       N/A
$$

HIC003-302100-
NORTHWEST ISLANDS-

CITY           SKY/WX    TMP DP  RH WIND       PRES   REMARKS
MIDWAY ISLAND  PTSUNNY   64  48  55 N7        30.18R
MIDWAY NOS*      N/A     64 N/A N/A MISG      30.17R
FRENCH FRIGATE NOT AVBL
$$

PHZ110>124-180-302100-
BUOY REPORTS

STATION/POSITION TIME  TEMP    WIND        PRES    WAVE   SWELL
                       AIR SEA DIR/SP/G            HT/PER HT/DIR
                 (UTC) (F)     (DEG/KT/KT) (MB)    (FT/S) (FT/D)
BUOY 51001       2030   75 76  170/  6/  8 1019.5R
BUOY 51101       1950   75 76  170/  6/  8 1019.9R   6/13   5/310
BUOY 51100       NOT AVBL
BUOY 51002       2030   78 78   90/ 17/ 23 1016.9F
BUOY 51003       1950   77 78   70/ 14/ 16 1018.0R   7/13   5/300
BUOY 51004       1950      77   70/ 17/ 21 1018.0R  10/ 8   7/330
BARBERS PT BUOY  NOT AVBL
WAIMEA BAY BUOY  2002      76                N/A     6/14   5/320
KAILUA BAY BUOY  2004      76                N/A     7/10   2/ 70
LANAI BUOY       2015      79                N/A     3/11   2/240
BARBERS PT 2     NOT AVBL
PAUWELA MAUI     2009      76                N/A     6/13   3/320
HILO             2012      77                N/A     9/10   3/340
KANEOHE BAY BUOY 2025      75                N/A     5/ 9   2/350
HANALEI KAUAI    2022      77                N/A     6/13   5/310
KAHULUI HARBOR   2012   80 77   90/ 14/ 19 1018.3
HONOLULU HARBOR  2012   80 78   60/  6/ 13 1019.6
KILO NALU        NOT AVBL
HILO HARBOR      2012   83 75  130/  5/  8 1019.6
MOKUOLOE         1936   80 79  100/ 13/ 16 1019.5F
NAWILIWILI       2012   76 79   90/ 12/ 14 1019.6
WHOTS BUOY       NOT AVBL
BUOY 51028       NOT AVBL
$$

......................KEY........................................
  SKY/WX - SKY CONDITIONS/PRESENT WEATHER
  TMP    - TEMPERATURE IN FAHRENHEIT
  DWPT   - DEWPOINT IN FAHRENHEIT
  RH     - RELATIVE HUMIDITY IN PERCENT
  WIND   - DIRECTION AND SPEED /MPH FOR ISLANDS...KTS FOR BUOYS/
  PRES   - MEAN SEA LEVEL PRESSURE IN INCHES OF HG
  VSB    - VISIBILITY IN MILES
  HX     - HEAT INDEX
  WCI    - WIND CHILL INDEX
  VRB    - VARIABLE WIND DIRECTION
  N/A    - NOT AVAILABLE




USA.gov is the U.S. government's official web portal to all federal, state and local government web resources and services.